| time (UTC) | temp C | wind direction | speed KPH | gust KPH | rain 1hr cm | rain 24hr cm | rain mn cm | humidity % | barometer mb |
| 20260506212915 | 16 | 65 | 0.0 | 0.0 | 0.00 | 0.41 | 0.41 | 98 | 1008.6 |
| 20260506212411 | 16 | 46 | 0.0 | 0.0 | 0.00 | 0.41 | 0.41 | 98 | 1008.6 |
| 20260506211906 | 16 | 57 | 0.0 | 0.0 | 0.00 | 0.41 | 0.41 | 98 | 1008.5 |
| 20260506211403 | 16 | 225 | 3.2 | 3.2 | 0.00 | 0.41 | 0.41 | 98 | 1008.4 |
| 20260506210900 | 16 | 61 | 3.2 | 4.8 | 0.00 | 0.41 | 0.41 | 98 | 1008.3 |
| 20260506210356 | 16 | 231 | 1.6 | 4.8 | 0.00 | 0.41 | 0.41 | 97 | 1008.4 |
| 20260506205854 | 16 | 334 | 3.2 | 3.2 | 0.00 | 0.41 | 0.41 | 97 | 1008.1 |
| 20260506205349 | 16 | 56 | 6.4 | 9.7 | 0.00 | 0.41 | 0.41 | 97 | 1008.3 |
| 20260506204846 | 16 | 1 | 1.6 | 1.6 | 0.00 | 0.41 | 0.41 | 97 | 1008.4 |
| 20260506204344 | 16 | 59 | 0.0 | 0.0 | 0.00 | 0.41 | 0.41 | 97 | 1008.4 |
| 20260506203841 | 16 | 43 | 1.6 | 1.6 | 0.00 | 0.41 | 0.41 | 97 | 1008.3 |
| 20260506203338 | 16 | 29 | 0.0 | 1.6 | 0.00 | 0.41 | 0.41 | 97 | 1008.2 |
| 20260506202835 | 16 | 124 | 3.2 | 3.2 | 0.00 | 0.41 | 0.41 | 96 | 1008.4 |
| 20260506202332 | 16 | 45 | 1.6 | 1.6 | 0.00 | 0.41 | 0.41 | 95 | 1008.1 |
| 20260506201829 | 16 | 89 | 1.6 | 3.2 | 0.00 | 0.41 | 0.41 | 96 | 1008.3 |
| 20260506201326 | 16 | 76 | 0.0 | 1.6 | 0.00 | 0.41 | 0.41 | 97 | 1008.2 |
| 20260506200823 | 16 | 71 | 3.2 | 3.2 | 0.00 | 0.41 | 0.41 | 95 | 1008.7 |
| 20260506200319 | 16 | 88 | 1.6 | 1.6 | 0.00 | 0.41 | 0.41 | 97 | 1008.5 |
| 20260506195815 | 16 | 193 | 4.8 | 8.0 | 0.00 | 0.41 | 0.41 | 96 | 1008.5 |
| 20260506195312 | 16 | 144 | 1.6 | 1.6 | 0.00 | 0.41 | 0.41 | 98 | 1008.5 |
| 20260506194809 | 16 | 205 | 6.4 | 9.7 | 0.00 | 0.41 | 0.41 | 97 | 1008.7 |
| 20260506194306 | 16 | 43 | 1.6 | 1.6 | 0.00 | 0.41 | 0.41 | 98 | 1008.7 |
| 20260506193804 | 16 | 43 | 1.6 | 3.2 | 0.00 | 0.41 | 0.41 | 97 | 1008.9 |
| 20260506193300 | 16 | 119 | 1.6 | 3.2 | 0.00 | 0.41 | 0.41 | 97 | 1008.8 |
| 20260506192756 | 16 | 134 | 4.8 | 4.8 | 0.00 | 0.41 | 0.41 | 98 | 1008.9 |
| 20260506192253 | 16 | 37 | 1.6 | 1.6 | 0.00 | 0.41 | 0.41 | 98 | 1008.9 |
| 20260506191750 | 16 | 79 | 1.6 | 1.6 | 0.00 | 0.41 | 0.41 | 98 | 1009.0 |
| 20260506191247 | 16 | 84 | 1.6 | 3.2 | 0.00 | 0.41 | 0.41 | 98 | 1008.9 |
| 20260506190744 | 16 | 65 | 1.6 | 3.2 | 0.00 | 0.41 | 0.41 | 98 | 1008.8 |
| 20260506190240 | 16 | 22 | 3.2 | 3.2 | 0.00 | 0.41 | 0.41 | 98 | 1009.1 |
| 20260506185737 | 16 | 61 | 1.6 | 1.6 | 0.00 | 0.41 | 0.41 | 99 | 1009.0 |
| 20260506185234 | 16 | 39 | 3.2 | 3.2 | 0.00 | 0.41 | 0.41 | 97 | 1009.0 |
| 20260506184731 | 16 | 78 | 1.6 | 3.2 | 0.00 | 0.41 | 0.41 | 98 | 1009.0 |
| 20260506184228 | 16 | 158 | 1.6 | 3.2 | 0.00 | 0.41 | 0.41 | 98 | 1009.2 |
| 20260506183725 | 16 | 175 | 3.2 | 3.2 | 0.00 | 0.41 | 0.41 | 99 | 1009.1 |
| 20260506183221 | 16 | 117 | 3.2 | 3.2 | 0.00 | 0.41 | 0.41 | 99 | 1009.1 |
| 20260506182718 | 16 | 55 | 0.0 | 0.0 | 0.18 | 0.41 | 0.41 | 99 | 1009.2 |
| 20260506182215 | 16 | 15 | 1.6 | 1.6 | 0.18 | 0.41 | 0.41 | 99 | 1009.3 |
| 20260506181713 | 16 | 66 | 1.6 | 1.6 | 0.00 | 0.38 | 0.38 | 99 | 1009.4 |
| 20260506181210 | 16 | 40 | 0.0 | 0.0 | 0.00 | 0.38 | 0.38 | 99 | 1009.4 |
| 20260506180707 | 16 | 209 | 3.2 | 4.8 | 0.00 | 0.38 | 0.38 | 99 | 1009.4 |
| 20260506180203 | 16 | 7 | 1.6 | 1.6 | 0.13 | 0.38 | 0.38 | 99 | 1009.4 |
| 20260506175659 | 16 | 25 | 0.0 | 0.0 | 0.13 | 0.38 | 0.38 | 99 | 1009.5 |
| 20260506175156 | 16 | 74 | 1.6 | 1.6 | 0.00 | 0.36 | 0.36 | 99 | 1009.6 |
| 20260506174649 | 16 | 75 | 0.0 | 0.0 | 0.00 | 0.36 | 0.36 | 99 | 1009.5 |
| 20260506174145 | 16 | 74 | 1.6 | 3.2 | 0.18 | 0.36 | 0.36 | 98 | 1009.3 |
| 20260506173643 | 16 | 53 | 1.6 | 1.6 | 0.18 | 0.36 | 0.36 | 98 | 1009.6 |
| 20260506173140 | 16 | 72 | 1.6 | 1.6 | 0.00 | 0.33 | 0.33 | 98 | 1009.3 |
| 20260506172637 | 16 | 57 | 0.0 | 1.6 | 0.00 | 0.33 | 0.33 | 99 | 1009.5 |
| 20260506172133 | 16 | 87 | 1.6 | 1.6 | 0.00 | 0.33 | 0.33 | 99 | 1009.5 |
| 20260506171631 | 16 | 180 | 1.6 | 3.2 | 0.00 | 0.33 | 0.33 | 99 | 1009.6 |
| 20260506171128 | 16 | 192 | 0.0 | 3.2 | 0.13 | 0.33 | 0.33 | 99 | 1009.4 |
| 20260506170620 | 16 | 72 | 1.6 | 1.6 | 0.13 | 0.33 | 0.33 | 99 | 1009.7 |
| 20260506170117 | 16 | 61 | 0.0 | 1.6 | 0.18 | 0.30 | 0.30 | 99 | 1009.7 |
| 20260506165615 | 16 | 57 | 0.0 | 0.0 | 0.30 | 0.30 | 0.30 | 99 | 1010.0 |
| 20260506165111 | 16 | 29 | 0.0 | 0.0 | 0.30 | 0.28 | 0.28 | 99 | 1010.2 |
| 20260506164608 | 16 | 157 | 1.6 | 3.2 | 0.30 | 0.25 | 0.25 | 99 | 1010.2 |
| 20260506164106 | 16 | 50 | 0.0 | 0.0 | 0.13 | 0.23 | 0.23 | 99 | 1010.2 |
| 20260506163601 | 16 | 32 | 0.0 | 0.0 | 0.18 | 0.20 | 0.20 | 99 | 1010.4 |
| 20260506163057 | 16 | 54 | 0.0 | 0.0 | 0.13 | 0.18 | 0.18 | 99 | 1010.5 |
| 20260506162554 | 16 | 76 | 1.6 | 1.6 | 0.13 | 0.18 | 0.18 | 99 | 1010.4 |
| 20260506162051 | 16 | 48 | 0.0 | 0.0 | 0.18 | 0.15 | 0.15 | 99 | 1010.6 |
| 20260506161549 | 16 | 54 | 1.6 | 3.2 | 0.18 | 0.15 | 0.15 | 99 | 1010.6 |
| 20260506161045 | 16 | 43 | 1.6 | 3.2 | 0.18 | 0.13 | 0.13 | 98 | 1010.7 |
| 20260506160543 | 16 | 88 | 0.0 | 0.0 | 0.30 | 0.13 | 0.13 | 98 | 1011.0 |
| 20260506160040 | 16 | 42 | 0.0 | 1.6 | 0.13 | 0.10 | 0.10 | 97 | 1011.1 |
| 20260506155539 | 16 | 36 | 0.0 | 0.0 | 0.18 | 0.08 | 0.08 | 97 | 1010.9 |
| 20260506153715 | 17 | 63 | 1.6 | 3.2 | 0.00 | 0.03 | 0.03 | 95 | 1010.7 |
| 20260506153213 | 17 | 66 | 0.0 | 0.0 | 0.00 | 0.03 | 0.03 | 93 | 1010.7 |
| 20260506152709 | 17 | 72 | 0.0 | 0.0 | 0.18 | 0.03 | 0.03 | 94 | 1010.7 |
| 20260506152207 | 17 | 114 | 3.2 | 4.8 | 0.18 | 0.03 | 0.03 | 92 | 1010.7 |
| 20260506151706 | 17 | 63 | 0.0 | 0.0 | 0.00 | 0.00 | 0.00 | 92 | 1010.9 |
| 20260506151202 | 17 | 1 | 0.0 | 1.6 | 0.00 | 0.00 | 0.00 | 90 | 1010.9 |
| 20260506150658 | 17 | 58 | 1.6 | 1.6 | 0.00 | 0.00 | 0.00 | 91 | 1011.0 |
| 20260506150155 | 17 | 52 | 0.0 | 0.0 | 0.00 | 0.00 | 0.00 | 90 | 1011.0 |
| 20260506145652 | 17 | 324 | 0.0 | 0.0 | 0.00 | 0.00 | 0.00 | 87 | 1011.1 |
| 20260506145149 | 17 | 71 | 0.0 | 0.0 | 0.00 | 0.00 | 0.00 | 87 | 1011.1 |
| 20260506144647 | 17 | 21 | 3.2 | 3.2 | 0.00 | 0.00 | 0.00 | 86 | 1011.0 |
| 20260506144143 | 17 | 54 | 0.0 | 0.0 | 0.00 | 0.00 | 0.00 | 87 | 1011.2 |
| 20260506143641 | 17 | 129 | 3.2 | 3.2 | 0.00 | 0.00 | 0.00 | 86 | 1011.3 |
| 20260506143139 | 18 | 37 | 1.6 | 1.6 | 0.00 | 0.00 | 0.00 | 83 | 1011.4 |
| 20260506142637 | 18 | 48 | 1.6 | 1.6 | 0.00 | 0.00 | 0.00 | 83 | 1011.3 |
| 20260506142135 | 18 | 56 | 0.0 | 0.0 | 0.00 | 0.00 | 0.00 | 84 | 1011.4 |
| 20260506141632 | 17 | 41 | 0.0 | 0.0 | 0.00 | 0.00 | 0.00 | 84 | 1011.4 |
| 20260506141130 | 18 | 41 | 0.0 | 0.0 | 0.00 | 0.00 | 0.00 | 83 | 1011.4 |
| 20260506140628 | 18 | 186 | 6.4 | 9.7 | 0.00 | 0.00 | 0.00 | 82 | 1011.3 |
| 20260506140125 | 18 | 97 | 4.8 | 4.8 | 0.00 | 0.00 | 0.00 | 82 | 1011.3 |
| 20260506135622 | 18 | 74 | 0.0 | 0.0 | 0.00 | 0.00 | 0.00 | 83 | 1011.1 |
| 20260506135118 | 18 | 141 | 3.2 | 4.8 | 0.00 | 0.00 | 0.00 | 82 | 1011.2 |
| 20260506134614 | 18 | 196 | 4.8 | 9.7 | 0.00 | 0.00 | 0.00 | 81 | 1011.0 |
| 20260506134110 | 18 | 208 | 4.8 | 4.8 | 0.00 | 0.00 | 0.00 | 81 | 1010.9 |
| 20260506133608 | 18 | 58 | 3.2 | 4.8 | 0.00 | 0.00 | 0.00 | 80 | 1011.0 |
| 20260506133104 | 18 | 193 | 3.2 | 3.2 | 0.00 | 0.00 | 0.00 | 81 | 1010.9 |
| 20260506132602 | 18 | 56 | 3.2 | 4.8 | 0.00 | 0.00 | 0.00 | 82 | 1011.0 |
| 20260506132059 | 18 | 31 | 0.0 | 0.0 | 0.00 | 0.00 | 0.00 | 81 | 1011.0 |
| 20260506131556 | 18 | 46 | 3.2 | 4.8 | 0.00 | 0.00 | 0.00 | 83 | 1010.9 |
| 20260506131052 | 18 | 159 | 8.0 | 12.9 | 0.00 | 0.00 | 0.00 | 80 | 1010.8 |
| 20260506130549 | 18 | 212 | 1.6 | 8.0 | 0.00 | 0.00 | 0.00 | 83 | 1010.9 |
| 20260506130047 | 17 | 211 | 4.8 | 9.7 | 0.00 | 0.00 | 0.00 | 83 | 1010.8 |
| 20260506125545 | 17 | 184 | 4.8 | 4.8 | 0.00 | 0.00 | 0.00 | 83 | 1010.7 |
| 20260506125042 | 17 | 176 | 4.8 | 4.8 | 0.00 | 0.00 | 0.00 | 83 | 1010.9 |
| 20260506124540 | 17 | 236 | 4.8 | 8.0 | 0.00 | 0.00 | 0.00 | 84 | 1011.1 |
| 20260506124038 | 17 | 199 | 8.0 | 9.7 | 0.00 | 0.00 | 0.00 | 84 | 1011.2 |
| 20260506123535 | 17 | 195 | 6.4 | 8.0 | 0.00 | 0.00 | 0.00 | 85 | 1011.4 |
| 20260506123033 | 17 | 202 | 6.4 | 8.0 | 0.00 | 0.00 | 0.00 | 84 | 1011.3 |
| 20260506122529 | 17 | 62 | 0.0 | 0.0 | 0.00 | 0.00 | 0.00 | 86 | 1011.4 |
| 20260506122028 | 17 | 205 | 8.0 | 16.1 | 0.00 | 0.00 | 0.00 | 84 | 1011.6 |
| 20260506121525 | 16 | 173 | 1.6 | 3.2 | 0.00 | 0.00 | 0.00 | 85 | 1011.6 |
| 20260506121021 | 16 | 67 | 3.2 | 4.8 | 0.00 | 0.00 | 0.00 | 86 | 1011.7 |
| 20260506120519 | 16 | 213 | 6.4 | 9.7 | 0.00 | 0.00 | 0.00 | 85 | 1011.7 |
| 20260506120017 | 16 | 201 | 1.6 | 1.6 | 0.00 | 0.00 | 0.00 | 86 | 1011.3 |
| 20260506115514 | 16 | 49 | 0.0 | 0.0 | 0.00 | 0.00 | 0.00 | 86 | 1011.4 |
| 20260506115013 | 16 | 61 | 0.0 | 0.0 | 0.00 | 0.00 | 0.00 | 85 | 1011.7 |
| 20260506114509 | 16 | 75 | 4.8 | 9.7 | 0.00 | 0.00 | 0.00 | 84 | 1011.5 |
| 20260506114008 | 16 | 173 | 4.8 | 9.7 | 0.00 | 0.00 | 0.00 | 85 | 1011.3 |
| 20260506113505 | 16 | 47 | 3.2 | 4.8 | 0.00 | 0.00 | 0.00 | 85 | 1011.3 |
| 20260506113002 | 16 | 15 | 1.6 | 3.2 | 0.00 | 0.00 | 0.00 | 84 | 1011.4 |
| 20260506112459 | 16 | 56 | 0.0 | 0.0 | 0.00 | 0.00 | 0.00 | 85 | 1011.1 |
| 20260506111956 | 16 | 39 | 0.0 | 1.6 | 0.00 | 0.00 | 0.00 | 85 | 1011.0 |
| 20260506111454 | 16 | 56 | 1.6 | 3.2 | 0.00 | 0.00 | 0.00 | 85 | 1011.2 |
| 20260506110951 | 16 | 113 | 4.8 | 4.8 | 0.00 | 0.00 | 0.00 | 85 | 1011.0 |
| 20260506110449 | 16 | 52 | 0.0 | 1.6 | 0.00 | 0.00 | 0.00 | 85 | 1010.8 |
| 20260506105945 | 16 | 39 | 0.0 | 0.0 | 0.00 | 0.00 | 0.00 | 84 | 1011.0 |
| 20260506105442 | 16 | 30 | 1.6 | 3.2 | 0.00 | 0.00 | 0.00 | 84 | 1010.9 |
| 20260506104939 | 16 | 200 | 8.0 | 12.9 | 0.00 | 0.00 | 0.00 | 84 | 1011.0 |
| 20260506104437 | 16 | 236 | 3.2 | 3.2 | 0.00 | 0.00 | 0.00 | 86 | 1010.9 |
| 20260506103935 | 16 | 70 | 0.0 | 1.6 | 0.00 | 0.00 | 0.00 | 86 | 1010.8 |
| 20260506103432 | 15 | 212 | 8.0 | 9.7 | 0.00 | 0.00 | 0.00 | 86 | 1010.9 |
| 20260506102929 | 15 | 50 | 1.6 | 3.2 | 0.00 | 0.00 | 0.00 | 88 | 1011.1 |
| 20260506102427 | 15 | 1 | 0.0 | 0.0 | 0.00 | 0.00 | 0.00 | 91 | 1011.0 |
| 20260506101924 | 13 | 77 | 0.0 | 0.0 | 0.00 | 0.00 | 0.00 | 94 | 1011.2 |
| 20260506101420 | 12 | 255 | 4.8 | 8.0 | 0.00 | 0.00 | 0.00 | 99 | 1010.8 |
| 20260506100918 | 11 | 358 | 0.0 | 0.0 | 0.00 | 0.00 | 0.00 | 99 | 1011.0 |
| 20260506100416 | 11 | 359 | 0.0 | 0.0 | 0.00 | 0.00 | 0.00 | 99 | 1011.0 |
| 20260506095914 | 11 | 332 | 0.0 | 0.0 | 0.00 | 0.00 | 0.00 | 99 | 1011.0 |
| 20260506095412 | 11 | 338 | 0.0 | 0.0 | 0.00 | 0.00 | 0.00 | 99 | 1010.9 |
| 20260506094908 | 11 | 2 | 0.0 | 0.0 | 0.00 | 0.00 | 0.00 | 99 | 1011.0 |
| 20260506094407 | 11 | 2 | 0.0 | 0.0 | 0.00 | 0.00 | 0.00 | 99 | 1010.9 |
| 20260506093904 | 11 | 25 | 0.0 | 0.0 | 0.00 | 0.00 | 0.00 | 99 | 1010.7 |
| 20260506093401 | 10 | 358 | 0.0 | 0.0 | 0.00 | 0.00 | 0.00 | 99 | 1010.8 |
| 20260506092859 | 10 | 358 | 0.0 | 0.0 | 0.00 | 0.00 | 0.00 | 99 | 1010.9 |
| 20260506092357 | 10 | 30 | 0.0 | 0.0 | 0.00 | 0.00 | 0.00 | 99 | 1010.8 |
| 20260506091853 | 10 | 236 | 0.0 | 0.0 | 0.00 | 0.00 | 0.00 | 99 | 1010.9 |
| 20260506091351 | 11 | 235 | 0.0 | 0.0 | 0.00 | 0.00 | 0.00 | 99 | 1010.9 |
| 20260506090848 | 10 | 235 | 0.0 | 0.0 | 0.00 | 0.00 | 0.00 | 99 | 1010.9 |
| 20260506090346 | 10 | 235 | 0.0 | 0.0 | 0.00 | 0.00 | 0.00 | 99 | 1010.8 |
| 20260506085842 | 10 | 236 | 0.0 | 0.0 | 0.00 | 0.00 | 0.00 | 99 | 1011.0 |
| 20260506085338 | 11 | 236 | 0.0 | 0.0 | 0.00 | 0.00 | 0.00 | 99 | 1011.2 |
| 20260506084835 | 11 | 236 | 0.0 | 0.0 | 0.00 | 0.00 | 0.00 | 99 | 1011.2 |
| 20260506084332 | 11 | 236 | 0.0 | 0.0 | 0.00 | 0.00 | 0.00 | 99 | 1011.3 |
| 20260506083829 | 11 | 236 | 0.0 | 0.0 | 0.00 | 0.00 | 0.00 | 99 | 1011.1 |
| 20260506083326 | 11 | 236 | 0.0 | 0.0 | 0.00 | 0.00 | 0.00 | 99 | 1011.2 |
| 20260506082824 | 11 | 236 | 0.0 | 0.0 | 0.00 | 0.00 | 0.00 | 99 | 1011.2 |
| 20260506082320 | 11 | 236 | 0.0 | 0.0 | 0.00 | 0.00 | 0.00 | 99 | 1011.0 |
| 20260506081816 | 11 | 236 | 0.0 | 0.0 | 0.00 | 0.00 | 0.00 | 99 | 1011.4 |
| 20260506081314 | 11 | 236 | 0.0 | 0.0 | 0.00 | 0.00 | 0.00 | 99 | 1011.1 |
| 20260506080812 | 11 | 236 | 0.0 | 0.0 | 0.00 | 0.00 | 0.00 | 99 | 1011.1 |
| 20260506080308 | 12 | 236 | 0.0 | 0.0 | 0.00 | 0.00 | 0.00 | 99 | 1011.1 |
| 20260506073252 | 12 | 236 | 0.0 | 0.0 | 0.00 | 0.00 | 0.00 | 97 | 1011.5 |
| 20260506072749 | 12 | 236 | 0.0 | 0.0 | 0.00 | 0.00 | 0.00 | 97 | 1011.5 |
| 20260506072246 | 12 | 236 | 0.0 | 0.0 | 0.00 | 0.00 | 0.00 | 97 | 1011.8 |
| 20260506071744 | 13 | 236 | 0.0 | 0.0 | 0.00 | 0.00 | 0.00 | 96 | 1011.8 |
| 20260506071242 | 13 | 236 | 0.0 | 0.0 | 0.00 | 0.00 | 0.00 | 96 | 1011.7 |
| 20260506070738 | 13 | 237 | 0.0 | 0.0 | 0.00 | 0.00 | 0.00 | 95 | 1011.6 |
| 20260506070235 | 13 | 237 | 0.0 | 0.0 | 0.00 | 0.00 | 0.00 | 95 | 1011.8 |
| 20260506062212 | 13 | 37 | 0.0 | 0.0 | 0.00 | 0.00 | 0.00 | 92 | 1012.1 |
| 20260506061708 | 14 | 37 | 0.0 | 0.0 | 0.00 | 0.00 | 0.00 | 92 | 1012.2 |
| 20260506061206 | 14 | 37 | 0.0 | 0.0 | 0.00 | 0.00 | 0.00 | 91 | 1012.1 |
| 20260506060704 | 14 | 37 | 0.0 | 0.0 | 0.00 | 0.00 | 0.00 | 92 | 1012.1 |
| 20260506060200 | 15 | 37 | 0.0 | 0.0 | 0.00 | 0.00 | 0.00 | 91 | 1012.4 |
| 20260506051133 | 15 | 17 | 0.0 | 0.0 | 0.00 | 0.00 | 0.00 | 88 | 1012.6 |
| 20260506050631 | 15 | 17 | 0.0 | 0.0 | 0.00 | 0.00 | 0.00 | 86 | 1012.5 |
| 20260506050128 | 16 | 49 | 0.0 | 0.0 | 0.00 | 0.00 | 0.00 | 85 | 1012.5 |
| 20260506045121 | 16 | 8 | 0.0 | 1.6 | 0.00 | 0.00 | 0.00 | 85 | 1012.6 |
| 20260506044619 | 16 | 288 | 9.7 | 12.9 | 0.00 | 0.00 | 0.00 | 85 | 1012.5 |
| 20260506044116 | 16 | 9 | 0.0 | 0.0 | 0.00 | 0.00 | 0.00 | 83 | 1012.5 |
| 20260506043613 | 16 | 350 | 0.0 | 0.0 | 0.00 | 0.00 | 0.00 | 80 | 1012.5 |
| 20260506043111 | 16 | 350 | 0.0 | 1.6 | 0.00 | 0.00 | 0.00 | 79 | 1012.2 |
| 20260506042610 | 16 | 11 | 0.0 | 0.0 | 0.00 | 0.00 | 0.00 | 77 | 1012.3 |
| 20260506042108 | 17 | 11 | 0.0 | 0.0 | 0.00 | 0.00 | 0.00 | 76 | 1012.1 |
| 20260506041606 | 17 | 11 | 0.0 | 0.0 | 0.00 | 0.00 | 0.00 | 74 | 1011.9 |
| 20260506041102 | 17 | 11 | 0.0 | 0.0 | 0.00 | 0.00 | 0.00 | 75 | 1011.9 |
| 20260506040600 | 17 | 11 | 0.0 | 0.0 | 0.00 | 0.00 | 0.00 | 73 | 1011.6 |
| 20260506040056 | 18 | 11 | 0.0 | 0.0 | 0.00 | 0.00 | 0.00 | 69 | 1011.6 |
| 20260506035553 | 18 | 11 | 0.0 | 0.0 | 0.00 | 0.00 | 0.00 | 68 | 1011.7 |
| 20260506035050 | 18 | 11 | 0.0 | 0.0 | 0.00 | 0.00 | 0.00 | 66 | 1011.5 |
| 20260506034547 | 19 | 24 | 0.0 | 0.0 | 0.00 | 0.00 | 0.00 | 67 | 1011.6 |
| 20260506034044 | 20 | 45 | 0.0 | 0.0 | 0.00 | 0.00 | 0.00 | 63 | 1011.5 |
| 20260506033542 | 20 | 341 | 1.6 | 3.2 | 0.00 | 0.00 | 0.00 | 58 | 1011.4 |
| 20260506033038 | 21 | 357 | 0.0 | 0.0 | 0.00 | 0.00 | 0.00 | 54 | 1011.5 |
| 20260506032536 | 20 | 56 | 0.0 | 0.0 | 0.00 | 0.00 | 0.00 | 55 | 1011.4 |
| 20260506032032 | 21 | 72 | 0.0 | 0.0 | 0.00 | 0.00 | 0.00 | 53 | 1011.2 |
| 20260506031530 | 21 | 53 | 0.0 | 0.0 | 0.00 | 0.00 | 0.00 | 58 | 1011.3 |
| 20260506031027 | 21 | 60 | 0.0 | 0.0 | 0.00 | 0.00 | 0.00 | 58 | 1011.2 |
| 20260506030525 | 20 | 56 | 0.0 | 0.0 | 0.00 | 0.00 | 0.00 | 60 | 1011.2 |
| 20260506030022 | 20 | 25 | 0.0 | 0.0 | 0.00 | 0.00 | 0.00 | 59 | 1011.3 |
| 20260506025519 | 18 | 204 | 3.2 | 8.0 | 0.00 | 0.00 | 0.00 | 62 | 1011.1 |
| 20260506025015 | 16 | 45 | 1.6 | 3.2 | 0.00 | 0.00 | 0.00 | 79 | 1011.0 |
| 20260506024512 | 16 | 14 | 0.0 | 0.0 | 0.00 | 0.00 | 0.00 | 86 | 1011.3 |
| 20260506024008 | 16 | 44 | 0.0 | 0.0 | 0.00 | 0.00 | 0.00 | 91 | 1011.2 |
| 20260506023504 | 15 | 45 | 0.0 | 0.0 | 0.00 | 0.00 | 0.00 | 95 | 1011.2 |
| 20260506023002 | 16 | 77 | 0.0 | 0.0 | 0.00 | 0.00 | 0.00 | 95 | 1011.3 |
| 20260506022459 | 16 | 77 | 0.0 | 0.0 | 0.00 | 0.00 | 0.00 | 95 | 1011.2 |
| 20260506021957 | 16 | 77 | 0.0 | 0.0 | 0.00 | 0.00 | 0.00 | 95 | 1011.5 |
| 20260506021454 | 16 | 77 | 0.0 | 0.0 | 0.00 | 0.00 | 0.00 | 95 | 1011.3 |
| 20260506020951 | 16 | 77 | 0.0 | 0.0 | 0.00 | 0.00 | 0.00 | 94 | 1011.4 |
| 20260506020449 | 16 | 77 | 0.0 | 0.0 | 0.00 | 0.00 | 0.00 | 94 | 1011.4 |
| 20260506015946 | 16 | 65 | 0.0 | 0.0 | 0.00 | 0.00 | 0.00 | 93 | 1011.5 |
| 20260506015443 | 16 | 65 | 0.0 | 0.0 | 0.00 | 0.00 | 0.00 | 94 | 1011.4 |
| 20260506014940 | 16 | 65 | 0.0 | 0.0 | 0.00 | 0.00 | 0.00 | 93 | 1011.5 |
| 20260506014437 | 16 | 65 | 0.0 | 0.0 | 0.00 | 0.00 | 0.00 | 92 | 1011.6 |
| 20260506013933 | 16 | 65 | 0.0 | 0.0 | 0.00 | 0.00 | 0.00 | 91 | 1011.4 |
| 20260506013432 | 16 | 65 | 0.0 | 0.0 | 0.00 | 0.00 | 0.00 | 90 | 1011.2 |
| 20260506012928 | 17 | 65 | 0.0 | 0.0 | 0.00 | 0.00 | 0.00 | 89 | 1011.2 |
| 20260506012424 | 16 | 65 | 0.0 | 0.0 | 0.00 | 0.00 | 0.00 | 87 | 1011.2 |
| 20260506011921 | 16 | 65 | 0.0 | 0.0 | 0.00 | 0.00 | 0.00 | 85 | 1011.1 |
| 20260506011418 | 16 | 65 | 0.0 | 0.0 | 0.00 | 0.00 | 0.00 | 86 | 1011.1 |
| 20260506010915 | 16 | 65 | 0.0 | 0.0 | 0.00 | 0.00 | 0.00 | 87 | 1010.9 |
| 20260506010414 | 16 | 65 | 0.0 | 0.0 | 0.00 | 0.00 | 0.00 | 89 | 1010.9 |
| 20260506005910 | 16 | 65 | 0.0 | 0.0 | 0.00 | 0.00 | 0.00 | 89 | 1010.9 |
| 20260506005408 | 16 | 65 | 0.0 | 0.0 | 0.00 | 0.00 | 0.00 | 88 | 1010.8 |
| 20260506004903 | 16 | 41 | 0.0 | 0.0 | 0.00 | 0.00 | 0.00 | 87 | 1010.7 |
| 20260506004401 | 16 | 107 | 0.0 | 0.0 | 0.00 | 0.00 | 0.00 | 87 | 1010.8 |
| 20260506003857 | 16 | 65 | 0.0 | 0.0 | 0.00 | 0.00 | 0.00 | 86 | 1010.7 |
| 20260506003353 | 16 | 65 | 0.0 | 0.0 | 0.00 | 0.00 | 0.00 | 85 | 1010.5 |
| 20260506002850 | 17 | 65 | 1.6 | 1.6 | 0.00 | 0.00 | 0.00 | 84 | 1010.7 |
| 20260506002346 | 17 | 35 | 0.0 | 0.0 | 0.00 | 0.00 | 0.00 | 79 | 1010.6 |
| 20260506001842 | 17 | 35 | 0.0 | 0.0 | 0.00 | 0.00 | 0.00 | 80 | 1010.6 |
| 20260506001339 | 17 | 35 | 0.0 | 0.0 | 0.00 | 0.00 | 0.00 | 81 | 1010.9 |
| 20260506000836 | 17 | 348 | 0.0 | 0.0 | 0.00 | 0.00 | 0.00 | 76 | 1010.6 |
| 20260506000334 | 18 | 65 | 0.0 | 0.0 | 0.00 | 0.00 | 0.00 | 80 | 1010.5 |
| 20260505235830 | 18 | 65 | 0.0 | 0.0 | 0.00 | 0.00 | 0.00 | 80 | 1010.6 |
| 20260505235328 | 18 | 187 | 0.0 | 0.0 | 0.00 | 0.00 | 0.00 | 80 | 1010.5 |
| 20260505234824 | 18 | 187 | 0.0 | 0.0 | 0.00 | 0.00 | 0.00 | 79 | 1010.2 |
| 20260505234322 | 18 | 187 | 0.0 | 0.0 | 0.00 | 0.00 | 0.00 | 78 | 1010.3 |
| 20260505233819 | 18 | 187 | 0.0 | 0.0 | 0.00 | 0.00 | 0.00 | 78 | 1010.3 |
| 20260505233317 | 18 | 221 | 0.0 | 0.0 | 0.00 | 0.00 | 0.00 | 78 | 1010.4 |
| 20260505232814 | 18 | 340 | 0.0 | 0.0 | 0.00 | 0.00 | 0.00 | 79 | 1010.2 |
| 20260505232311 | 19 | 340 | 0.0 | 0.0 | 0.00 | 0.00 | 0.00 | 77 | 1010.3 |
| 20260505231808 | 19 | 341 | 0.0 | 0.0 | 0.00 | 0.00 | 0.00 | 75 | 1010.4 |
| 20260505231306 | 19 | 329 | 0.0 | 0.0 | 0.00 | 0.00 | 0.00 | 72 | 1010.1 |
| 20260505230804 | 19 | 192 | 0.0 | 0.0 | 0.00 | 0.00 | 0.00 | 75 | 1010.2 |
| 20260505230301 | 20 | 1 | 0.0 | 0.0 | 0.00 | 0.00 | 0.00 | 71 | 1010.2 |
| 20260505225757 | 20 | 330 | 0.0 | 0.0 | 0.00 | 0.00 | 0.00 | 67 | 1010.2 |
| 20260505225255 | 21 | 319 | 0.0 | 0.0 | 0.00 | 0.00 | 0.00 | 65 | 1010.7 |
| 20260505224749 | 21 | 346 | 0.0 | 0.0 | 0.00 | 0.00 | 0.00 | 62 | 1010.3 |
| 20260505224247 | 22 | 353 | 3.2 | 3.2 | 0.00 | 0.00 | 0.00 | 56 | 1010.1 |
| 20260505223745 | 25 | 339 | 1.6 | 3.2 | 0.00 | 0.00 | 0.00 | 43 | 1010.1 |
| 20260505223241 | 25 | 40 | 1.6 | 1.6 | 0.00 | 0.00 | 0.00 | 40 | 1009.5 |
| 20260505222737 | 25 | 24 | 3.2 | 8.0 | 0.00 | 0.00 | 0.00 | 38 | 1009.3 |
| 20260505222233 | 26 | 17 | 0.0 | 0.0 | 0.00 | 0.00 | 0.00 | 38 | 1009.1 |
| 20260505221731 | 25 | 40 | 0.0 | 0.0 | 0.00 | 0.00 | 0.00 | 38 | 1009.0 |
| 20260505221227 | 25 | 355 | 3.2 | 4.8 | 0.00 | 0.00 | 0.00 | 37 | 1008.9 |
| 20260505220724 | 25 | 86 | 6.4 | 8.0 | 0.00 | 0.00 | 0.00 | 38 | 1008.9 |
| 20260505220222 | 25 | 56 | 1.6 | 1.6 | 0.00 | 0.00 | 0.00 | 40 | 1008.7 |
| 20260505215720 | 25 | 56 | 3.2 | 8.0 | 0.00 | 0.00 | 0.00 | 37 | 1008.8 |
| 20260505215217 | 25 | 34 | 0.0 | 0.0 | 0.00 | 0.00 | 0.00 | 39 | 1008.6 |
| 20260505214715 | 26 | 44 | 3.2 | 4.8 | 0.00 | 0.00 | 0.00 | 39 | 1008.4 |
| 20260505214212 | 26 | 345 | 0.0 | 0.0 | 0.00 | 0.00 | 0.00 | 39 | 1008.4 |
| 20260505213709 | 26 | 351 | 0.0 | 0.0 | 0.00 | 0.00 | 0.00 | 38 | 1008.2 |